Weather in Poddubnoe

Russia / Voronezh Oblast     49°53′35″N   39°22′23″E
temp.,
°C
wind,
m/s
gust,
m/s
humid.,
%
clouds,
%
prec.,
mm/h
press.,
hPa
HPBL,
m
19 january, wed
wed1900:00−10ssw339993 0.1 101036
03:00−12sw2310098 0.1 101138
06:00−11sw119789 0.1 101232
09:00−8nnw4994100 0.3 1014296
12:00−7n4693100 0.1 1016373
15:00−7nnw469494 0.3 1017389
18:00−10nnw489671 0.1 1018182
21:00−16nw229856 0.1 102029
20 january, thu
thu2000:00−19nnw229958 0.0 102121
03:00−21wnw2210057 0.0 102111
06:00−22wnw2210053 0.0 102111
09:00−22sw2210053 0.0 102117
12:00−13ssw34925 0.0 1020135
15:00−11s36935 0.0 1018176
18:00−14s489622 0.0 1017110
21:00−10s51289100 0.0 1016243
21 january, fri
fri2100:00−8s51390100 0.0 1014302
03:00−6sse61496100 0.4 1012399
06:00−5sse81895100 0.5 1009512
09:00−2s81696100 2.0 1007636
12:00+1ssw61193100 0.6 1006786
15:00−1sw71294100 0.6 1006818
18:00−5wsw5118920 0.3 1008294
21:00−10ssw411968 0.3 1010170
22 january, sat
sat2200:00−10ssw4129639 0.0 1011175
03:00−12ssw499766 0.0 1011128
06:00−12s499758 0.0 1012119
09:00−12s489650 0.0 1013108
12:00−7ssw499293 0.0 1014262
15:00−6s379477 0.0 1014259
18:00−12sse339858 0.0 101631
21:00−14sse229972 0.0 101819
23 january, sun
sun2300:00−15s2210075 0.0 101910
03:00−16e1110070 0.0 10209
06:00−16ene2299100 0.0 102112
09:00−12ne3597100 0.0 102276
12:00−8ne4794100 0.0 1023177
15:00−6nne51094100 0.0 1022366
18:00−7nne71491100 0.0 1022440
21:00−7nne71693100 0.1 1022472